Location: Mexico
(19.4000°N, 99.1500°W)
Time: 00:47:21
(UTC-06:00)

ISS - Pass Details

Date: 21 July 2017
Orbit: 400 x 408 km, 51.6° (Epoch: 21 July)

Event Time Altitude Azimuth Distance (km) Brightness Sun altitude
Rises 19:56:13 0° 196° (SSW) 2,296 -0.1 -9.4°
Reaches altitude 10° 19:58:32 10° 182° (S) 1,439 -1.3 -9.8°
Maximum altitude 20:01:12 24° 125° (SE) 872 -2.7 -10.4°
Drops below altitude 10° 20:03:53 10° 69° (ENE) 1,440 -1.4 -11.0°
Enters shadow 20:04:55 - 61° (ENE) 1,814 -0.9 -11.2°
